340P/Boattini (2016)

Japanese version
Home page
Updated on March 3, 2018

---------------------------------------------------------------------

* Profile

Designation 340P/2016 N2
Recovery Date July 4, 2016
Magnitude 20.4 mag
Recoverer R. Weryk (Pan-STARRS1 telescope at Haleakala)

* Pictures

* Orbital Elements

Epoch 2016 Nov. 28.0 TT = JDT 2457720.5
T 2016 Nov. 18.49659 TT                                 MPCW
q   3.0630112            (2000.0)            P               Q
n   0.11245586     Peri.   35.75692     +0.84333026     +0.53633908
a   4.2509043      Node   291.77465     -0.50109779     +0.76217848
e   0.2794448      Incl.    2.07856     -0.19415220     +0.36252497
P   8.76
From 262 observations 2006 May 25-2016 Nov. 24, mean residual 0".7.

* Magnitudes Graph

        m1 = 7.5 + 5 log d + 20.0 log r

---------------------------------------------------------------------

The orbital elements are published on M.P.E.C. 2017-A77.
The magnitudes graphs are made with Comet for Windows.

---------------------------------------------------------------------

Copyright(C) Seiichi Yoshida (comet@aerith.net). All rights reserved.